Volver al catálogo

STARLINK-1260

ActivoComunicacionesVLEO
NORAD 45404·PAYLOAD·🇺🇸 United States

Lanzado Mar 18, 2020 desde Cape Canaveral Space Force Station

Loading…

Próximos Pases (próximas 24 horas)

TLE

ActualizadoSource: CelesTrak SupGP

Época: Sep 14, 2026, 21:32 UTC

1 45404C 20019AW  26257.89770833  .00007705  00000+0  15402-3 0  2576
2 45404  53.1518 319.5584 0003920  20.5038 297.0053 15.46194945    14

Sigue STARLINK-1260 en tiempo real con AllMySat

Download on the App Store